Time,TemperatureF,DewpointF,PressureIn,WindDirection,WindDirectionDegrees,WindSpeedMPH,WindSpeedGustMPH,Humidity,HourlyPrecipIn,Conditions,Clouds,dailyrainin,SoftwareType,DateUTC
2013-03-31 00:00:00,50.3,47.8,29.91,SSW,202,0.0,0.0,91,0.00,,,0.00,VWS V14.01,2013-03-31 04:00:00,
2013-03-31 00:01:00,50.3,47.8,29.91,SSW,202,0.0,0.0,91,0.00,,,0.00,VWS V14.01,2013-03-31 04:01:00,
2013-03-31 00:06:00,50.2,48.0,29.91,SSW,202,0.0,0.0,92,0.00,,,0.00,VWS V14.01,2013-03-31 04:06:00,
2013-03-31 00:11:00,50.1,47.9,29.90,SSW,202,0.0,0.0,92,0.00,,,0.00,VWS V14.01,2013-03-31 04:11:00,
2013-03-31 00:16:00,50.0,47.8,29.90,SSW,202,0.0,0.0,92,0.00,,,0.00,VWS V14.01,2013-03-31 04:16:00,
2013-03-31 00:21:00,49.9,48.0,29.90,SSW,202,3.0,3.0,93,0.00,,,0.00,VWS V14.01,2013-03-31 04:21:00,
2013-03-31 00:26:00,49.9,48.0,29.89,SSW,202,0.0,0.0,93,0.00,,,0.00,VWS V14.01,2013-03-31 04:26:00,
2013-03-31 00:31:00,49.8,47.9,29.89,SSW,202,0.0,0.0,93,0.00,,,0.00,VWS V14.01,2013-03-31 04:31:00,
2013-03-31 00:36:00,49.8,48.2,29.89,SSW,202,0.0,0.0,94,0.00,,,0.00,VWS V14.01,2013-03-31 04:36:00,
2013-03-31 00:41:00,49.7,48.0,29.89,SSW,202,0.0,0.0,94,0.00,,,0.00,VWS V14.01,2013-03-31 04:41:00,
2013-03-31 00:46:00,49.6,48.0,29.89,SSW,202,0.0,0.0,94,0.00,,,0.00,VWS V14.01,2013-03-31 04:46:00,
2013-03-31 00:51:00,49.6,48.0,29.89,SSW,202,0.0,0.0,94,0.00,,,0.00,VWS V14.01,2013-03-31 04:51:00,
2013-03-31 00:57:00,49.5,47.8,29.88,SSW,202,0.0,0.0,94,0.00,,,0.00,VWS V14.01,2013-03-31 04:57:00,
2013-03-31 01:02:00,49.5,47.8,29.88,SSW,202,0.0,0.0,94,0.00,,,0.00,VWS V14.01,2013-03-31 05:02:00,
2013-03-31 01:07:00,49.4,48.0,29.88,SSW,202,0.0,0.0,95,0.00,,,0.00,VWS V14.01,2013-03-31 05:07:00,
2013-03-31 01:12:00,49.4,48.0,29.88,SSW,202,0.0,0.0,95,0.00,,,0.00,VWS V14.01,2013-03-31 05:12:00,
2013-03-31 01:17:00,49.4,48.0,29.88,SSW,202,0.0,0.0,95,0.00,,,0.00,VWS V14.01,2013-03-31 05:17:00,
2013-03-31 01:22:00,49.4,48.0,29.88,SSW,202,0.0,0.0,95,0.00,,,0.00,VWS V14.01,2013-03-31 05:22:00,
2013-03-31 01:27:00,49.4,48.0,29.87,SSW,202,0.0,0.0,95,0.00,,,0.00,VWS V14.01,2013-03-31 05:27:00,
2013-03-31 01:32:00,49.4,48.0,29.87,SSW,202,0.0,0.0,95,0.00,,,0.00,VWS V14.01,2013-03-31 05:32:00,
2013-03-31 01:37:00,49.3,47.9,29.87,SSW,202,0.0,0.0,95,0.00,,,0.00,VWS V14.01,2013-03-31 05:37:00,
2013-03-31 01:42:00,49.2,48.1,29.86,SSW,202,0.0,0.0,96,0.00,,,0.00,VWS V14.01,2013-03-31 05:42:00,
2013-03-31 01:47:00,49.2,48.1,29.86,SSW,202,0.0,0.0,96,0.00,,,0.00,VWS V14.01,2013-03-31 05:47:00,
2013-03-31 01:52:00,49.2,48.1,29.86,SSW,202,0.0,0.0,96,0.00,,,0.00,VWS V14.01,2013-03-31 05:52:00,
2013-03-31 01:57:00,49.2,48.1,29.86,SSW,202,0.0,0.0,96,0.00,,,0.00,VWS V14.01,2013-03-31 05:57:00,
2013-03-31 02:02:00,49.2,48.1,29.85,SSW,202,1.0,2.0,96,0.00,,,0.00,VWS V14.01,2013-03-31 06:02:00,
2013-03-31 02:07:00,49.2,48.1,29.85,SSW,202,0.0,0.0,96,0.00,,,0.00,VWS V14.01,2013-03-31 06:07:00,
2013-03-31 02:12:00,49.2,48.1,29.85,SSW,202,0.0,1.0,96,0.00,,,0.00,VWS V14.01,2013-03-31 06:12:00,
2013-03-31 02:17:00,49.2,48.1,29.84,SSW,202,0.0,0.0,96,0.00,,,0.00,VWS V14.01,2013-03-31 06:17:00,
2013-03-31 02:22:00,49.2,48.1,29.84,SSW,202,0.0,0.0,96,0.00,,,0.00,VWS V14.01,2013-03-31 06:22:00,
2013-03-31 02:28:00,49.2,48.1,29.83,SSW,202,0.0,0.0,96,0.00,,,0.00,VWS V14.01,2013-03-31 06:28:00,
2013-03-31 02:33:00,49.2,48.4,29.83,SSW,202,0.0,0.0,97,0.00,,,0.00,VWS V14.01,2013-03-31 06:33:00,
2013-03-31 02:38:00,49.2,48.4,29.83,SSW,202,0.0,0.0,97,0.00,,,0.00,VWS V14.01,2013-03-31 06:38:00,
2013-03-31 02:43:00,49.2,48.4,29.83,SSW,202,0.0,0.0,97,0.00,,,0.00,VWS V14.01,2013-03-31 06:43:00,
2013-03-31 02:48:00,49.2,48.4,29.83,SSW,202,0.0,0.0,97,0.00,,,0.00,VWS V14.01,2013-03-31 06:48:00,
2013-03-31 02:53:00,49.2,48.4,29.83,SSW,202,0.0,0.0,97,0.00,,,0.00,VWS V14.01,2013-03-31 06:53:00,
2013-03-31 02:58:00,49.3,48.5,29.82,SSW,202,0.0,0.0,97,0.00,,,0.00,VWS V14.01,2013-03-31 06:58:00,
2013-03-31 03:03:00,49.3,48.5,29.82,SSW,202,0.0,0.0,97,0.00,,,0.00,VWS V14.01,2013-03-31 07:03:00,
2013-03-31 03:08:00,49.3,48.5,29.82,SSW,202,0.0,0.0,97,0.00,,,0.00,VWS V14.01,2013-03-31 07:08:00,
2013-03-31 03:13:00,49.4,48.6,29.82,SSW,202,0.0,1.0,97,0.00,,,0.00,VWS V14.01,2013-03-31 07:13:00,
2013-03-31 03:18:00,49.4,48.6,29.81,SSW,202,0.0,0.0,97,0.00,,,0.00,VWS V14.01,2013-03-31 07:18:00,
2013-03-31 03:23:00,49.4,48.6,29.81,SSW,200,1.0,2.0,97,0.00,,,0.00,VWS V14.01,2013-03-31 07:23:00,
2013-03-31 03:28:00,49.4,48.6,29.81,SSW,201,0.0,0.0,97,0.00,,,0.00,VWS V14.01,2013-03-31 07:28:00,
2013-03-31 03:33:00,49.4,48.6,29.81,SSW,200,0.0,0.0,97,0.00,,,0.00,VWS V14.01,2013-03-31 07:33:00,
2013-03-31 03:38:00,49.4,48.6,29.81,SSW,200,0.0,0.0,97,0.00,,,0.00,VWS V14.01,2013-03-31 07:38:00,
2013-03-31 03:44:00,49.4,48.6,29.80,SSW,201,0.0,0.0,97,0.00,,,0.00,VWS V14.01,2013-03-31 07:44:00,
2013-03-31 03:49:00,49.5,48.7,29.80,SSW,200,0.0,0.0,97,0.00,,,0.00,VWS V14.01,2013-03-31 07:49:00,
2013-03-31 03:54:00,49.5,48.7,29.80,SSW,201,0.0,0.0,97,0.00,,,0.00,VWS V14.01,2013-03-31 07:54:00,
2013-03-31 03:59:00,49.5,48.7,29.79,SSW,200,0.0,0.0,97,0.00,,,0.00,VWS V14.01,2013-03-31 07:59:00,
2013-03-31 04:04:00,49.5,48.7,29.79,SSW,200,0.0,0.0,97,0.00,,,0.00,VWS V14.01,2013-03-31 08:04:00,
2013-03-31 04:09:00,49.5,48.7,29.78,SSW,201,0.0,0.0,97,0.00,,,0.00,VWS V14.01,2013-03-31 08:09:00,
2013-03-31 04:14:00,49.5,48.7,29.78,SSW,200,0.0,0.0,97,0.00,,,0.00,VWS V14.01,2013-03-31 08:14:00,
2013-03-31 04:19:00,49.4,48.6,29.78,SSW,201,0.0,0.0,97,0.00,,,0.00,VWS V14.01,2013-03-31 08:19:00,
2013-03-31 04:24:00,49.4,48.6,29.78,SSW,200,0.0,0.0,97,0.00,,,0.00,VWS V14.01,2013-03-31 08:24:00,
2013-03-31 04:29:00,49.3,48.8,29.77,SSW,200,0.0,0.0,98,0.00,,,0.00,VWS V14.01,2013-03-31 08:29:00,
2013-03-31 04:34:00,49.3,48.8,29.77,SSW,201,0.0,0.0,98,0.00,,,0.00,VWS V14.01,2013-03-31 08:34:00,
2013-03-31 04:39:00,49.3,48.8,29.77,SSW,200,0.0,0.0,98,0.00,,,0.00,VWS V14.01,2013-03-31 08:39:00,
2013-03-31 04:44:00,49.3,48.8,29.78,SSW,200,0.0,0.0,98,0.00,,,0.00,VWS V14.01,2013-03-31 08:44:00,
2013-03-31 04:49:00,49.3,48.8,29.78,SSW,200,0.0,0.0,98,0.00,,,0.00,VWS V14.01,2013-03-31 08:49:00,
2013-03-31 04:54:00,49.3,48.8,29.78,SSW,201,0.0,0.0,98,0.00,,,0.00,VWS V14.01,2013-03-31 08:54:00,
2013-03-31 04:59:00,49.3,48.8,29.78,SSW,201,0.0,0.0,98,0.00,,,0.00,VWS V14.01,2013-03-31 08:59:00,
2013-03-31 05:04:00,49.2,48.7,29.78,SSW,200,0.0,0.0,98,0.00,,,0.00,VWS V14.01,2013-03-31 09:04:00,
2013-03-31 05:09:00,49.2,48.7,29.78,SSW,201,0.0,0.0,98,0.00,,,0.00,VWS V14.01,2013-03-31 09:09:00,
2013-03-31 05:15:00,49.2,48.7,29.78,SSW,201,0.0,0.0,98,0.00,,,0.00,VWS V14.01,2013-03-31 09:15:00,
2013-03-31 05:20:00,49.1,48.6,29.78,SSW,200,0.0,0.0,98,0.00,,,0.00,VWS V14.01,2013-03-31 09:20:00,
2013-03-31 05:25:00,49.0,48.5,29.78,SSW,201,0.0,2.0,98,0.00,,,0.00,VWS V14.01,2013-03-31 09:25:00,
2013-03-31 05:30:00,48.9,48.4,29.77,SSW,201,0.0,0.0,98,0.00,,,0.00,VWS V14.01,2013-03-31 09:30:00,
2013-03-31 05:35:00,48.9,48.4,29.77,SSW,201,0.0,1.0,98,0.00,,,0.00,VWS V14.01,2013-03-31 09:35:00,
2013-03-31 05:40:00,48.9,48.4,29.78,SSW,201,0.0,1.0,98,0.00,,,0.00,VWS V14.01,2013-03-31 09:40:00,
2013-03-31 05:45:00,48.9,48.4,29.77,SSW,204,2.0,2.0,98,0.00,,,0.00,VWS V14.01,2013-03-31 09:45:00,
2013-03-31 05:51:00,48.8,48.3,29.78,SSW,203,2.0,2.0,98,0.00,,,0.00,VWS V14.01,2013-03-31 09:51:00,
2013-03-31 05:57:00,48.8,48.3,29.78,SSW,203,0.0,0.0,98,0.00,,,0.00,VWS V14.01,2013-03-31 09:57:00,
2013-03-31 06:02:00,48.8,48.3,29.78,SSW,204,1.0,2.0,98,0.00,,,0.00,VWS V14.01,2013-03-31 10:02:00,
2013-03-31 06:07:00,48.7,48.2,29.78,SSW,204,0.0,0.0,98,0.00,,,0.00,VWS V14.01,2013-03-31 10:07:00,
2013-03-31 06:12:00,48.7,48.2,29.78,SSW,203,0.0,0.0,98,0.00,,,0.00,VWS V14.01,2013-03-31 10:12:00,
2013-03-31 06:17:00,48.7,48.2,29.78,SSW,203,2.0,3.0,98,0.00,,,0.00,VWS V14.01,2013-03-31 10:17:00,
2013-03-31 06:22:00,48.7,48.2,29.78,SSW,204,1.0,2.0,98,0.00,,,0.00,VWS V14.01,2013-03-31 10:22:00,
2013-03-31 06:28:00,48.7,48.2,29.78,SSW,204,2.0,2.0,98,0.00,,,0.00,VWS V14.01,2013-03-31 10:28:00,
2013-03-31 06:33:00,48.6,48.1,29.79,SSW,205,3.0,3.0,98,0.00,,,0.00,VWS V14.01,2013-03-31 10:33:00,
2013-03-31 06:38:00,48.6,48.1,29.79,SSW,205,0.0,1.0,98,0.00,,,0.00,VWS V14.01,2013-03-31 10:38:00,
2013-03-31 06:43:00,48.5,48.0,29.79,SSW,205,0.0,0.0,98,0.00,,,0.00,VWS V14.01,2013-03-31 10:43:00,
2013-03-31 06:48:00,48.5,48.0,29.79,SSW,205,2.0,3.0,98,0.00,,,0.00,VWS V14.01,2013-03-31 10:48:00,
2013-03-31 06:53:00,48.5,48.0,29.79,SSW,205,1.0,1.0,98,0.00,,,0.00,VWS V14.01,2013-03-31 10:53:00,
2013-03-31 06:58:00,48.4,47.9,29.80,SSW,207,1.0,1.0,98,0.00,,,0.00,VWS V14.01,2013-03-31 10:58:00,
2013-03-31 07:04:00,48.3,47.8,29.81,SSW,209,0.0,1.0,98,0.00,,,0.00,VWS V14.01,2013-03-31 11:04:00,
2013-03-31 07:09:00,48.2,47.7,29.80,SSW,210,0.0,0.0,98,0.00,,,0.00,VWS V14.01,2013-03-31 11:09:00,
2013-03-31 07:14:00,48.0,47.5,29.80,SSW,211,1.0,1.0,98,0.00,,,0.00,VWS V14.01,2013-03-31 11:14:00,
2013-03-31 07:19:00,47.9,47.4,29.80,SSW,211,0.0,1.0,98,0.00,,,0.00,VWS V14.01,2013-03-31 11:19:00,
2013-03-31 07:24:00,47.8,47.3,29.80,SSW,211,0.0,0.0,98,0.00,,,0.00,VWS V14.01,2013-03-31 11:24:00,
2013-03-31 07:29:00,47.8,47.3,29.80,SSW,211,0.0,0.0,98,0.00,,,0.00,VWS V14.01,2013-03-31 11:29:00,
2013-03-31 07:34:00,47.8,47.3,29.81,SSW,211,1.0,1.0,98,0.00,,,0.00,VWS V14.01,2013-03-31 11:34:00,
2013-03-31 07:39:00,47.9,47.4,29.81,SSW,211,1.0,2.0,98,0.00,,,0.00,VWS V14.01,2013-03-31 11:39:00,
2013-03-31 07:44:00,47.8,47.3,29.81,SSW,211,1.0,2.0,98,0.00,,,0.00,VWS V14.01,2013-03-31 11:44:00,
2013-03-31 07:50:00,47.8,47.3,29.82,SSW,211,0.0,0.0,98,0.00,,,0.00,VWS V14.01,2013-03-31 11:50:00,
2013-03-31 07:55:00,47.8,47.3,29.82,SSW,211,0.0,0.0,98,0.00,,,0.00,VWS V14.01,2013-03-31 11:55:00,
2013-03-31 08:00:00,47.8,47.3,29.82,SSW,211,1.0,2.0,98,0.00,,,0.00,VWS V14.01,2013-03-31 12:00:00,
2013-03-31 08:05:00,47.8,47.3,29.82,SW,217,0.0,2.0,98,0.00,,,0.00,VWS V14.01,2013-03-31 12:05:00,
2013-03-31 08:10:00,47.8,47.3,29.82,SW,217,1.0,1.0,98,0.00,,,0.00,VWS V14.01,2013-03-31 12:10:00,
2013-03-31 08:15:00,47.8,47.3,29.83,SW,218,2.0,3.0,98,0.00,,,0.00,VWS V14.01,2013-03-31 12:15:00,
2013-03-31 08:20:00,47.8,47.3,29.83,SW,218,2.0,2.0,98,0.00,,,0.00,VWS V14.01,2013-03-31 12:20:00,
2013-03-31 08:26:00,47.8,47.3,29.83,SW,230,0.0,2.0,98,0.00,,,0.00,VWS V14.01,2013-03-31 12:26:00,
2013-03-31 08:31:00,47.9,47.4,29.83,SW,230,1.0,2.0,98,0.00,,,0.00,VWS V14.01,2013-03-31 12:31:00,
2013-03-31 08:36:00,47.9,47.4,29.83,SW,230,0.0,4.0,98,0.00,,,0.00,VWS V14.01,2013-03-31 12:36:00,
2013-03-31 08:41:00,47.9,47.4,29.83,SW,230,0.0,1.0,98,0.00,,,0.00,VWS V14.01,2013-03-31 12:41:00,
2013-03-31 08:46:00,47.9,47.4,29.83,SW,236,1.0,1.0,98,0.00,,,0.00,VWS V14.01,2013-03-31 12:46:00,
2013-03-31 08:51:00,47.9,47.4,29.83,SW,236,0.0,0.0,98,0.00,,,0.00,VWS V14.01,2013-03-31 12:51:00,
2013-03-31 08:56:00,47.9,47.4,29.83,SW,236,0.0,4.0,98,0.00,,,0.00,VWS V14.01,2013-03-31 12:56:00,
2013-03-31 09:01:00,48.0,47.5,29.83,SW,236,0.0,1.0,98,0.00,,,0.00,VWS V14.01,2013-03-31 13:01:00,
2013-03-31 09:06:00,48.0,47.5,29.83,SW,236,0.0,0.0,98,0.00,,,0.00,VWS V14.01,2013-03-31 13:06:00,
2013-03-31 09:11:00,48.0,47.5,29.83,SW,236,2.0,2.0,98,0.00,,,0.00,VWS V14.01,2013-03-31 13:11:00,
2013-03-31 09:16:00,48.0,47.5,29.83,SW,236,2.0,3.0,98,0.00,,,0.00,VWS V14.01,2013-03-31 13:16:00,
2013-03-31 09:21:00,48.1,47.6,29.83,SW,236,0.0,2.0,98,0.00,,,0.00,VWS V14.01,2013-03-31 13:21:00,
2013-03-31 09:28:00,48.1,47.6,29.83,SW,236,1.0,1.0,98,0.00,,,0.00,VWS V14.01,2013-03-31 13:28:00,
2013-03-31 09:33:00,48.1,47.6,29.83,WSW,238,2.0,3.0,98,0.00,,,0.00,VWS V14.01,2013-03-31 13:33:00,
2013-03-31 09:38:00,48.1,47.6,29.84,WSW,238,3.0,3.0,98,0.00,,,0.00,VWS V14.01,2013-03-31 13:38:00,
2013-03-31 09:43:00,48.1,47.6,29.84,WSW,238,1.0,2.0,98,0.00,,,0.00,VWS V14.01,2013-03-31 13:43:00,
2013-03-31 09:48:00,48.1,47.6,29.84,WSW,238,0.0,1.0,98,0.00,,,0.00,VWS V14.01,2013-03-31 13:48:00,
2013-03-31 09:54:00,48.2,47.7,29.84,WSW,237,0.0,1.0,98,0.00,,,0.00,VWS V14.01,2013-03-31 13:54:00,
2013-03-31 09:59:00,48.3,47.8,29.84,WSW,238,3.0,5.0,98,0.00,,,0.00,VWS V14.01,2013-03-31 13:59:00,
2013-03-31 10:04:00,48.2,47.7,29.84,SSW,205,2.0,2.0,98,0.00,,,0.00,VWS V14.01,2013-03-31 14:04:00,
2013-03-31 10:09:00,48.2,47.7,29.84,SSW,212,0.0,2.0,98,0.00,,,0.00,VWS V14.01,2013-03-31 14:09:00,
2013-03-31 10:14:00,48.2,47.7,29.84,WSW,237,5.0,5.0,98,0.00,,,0.00,VWS V14.01,2013-03-31 14:14:00,
2013-03-31 10:19:00,48.2,47.7,29.83,WSW,241,0.0,5.0,98,0.00,,,0.00,VWS V14.01,2013-03-31 14:19:00,
2013-03-31 10:24:00,48.2,47.7,29.83,WSW,242,2.0,3.0,98,0.00,,,0.00,VWS V14.01,2013-03-31 14:24:00,
2013-03-31 10:29:00,48.3,47.8,29.84,WSW,249,0.0,1.0,98,0.00,,,0.00,VWS V14.01,2013-03-31 14:29:00,
2013-03-31 10:34:00,48.3,48.0,29.84,WSW,250,3.0,3.0,99,0.00,,,0.00,VWS V14.01,2013-03-31 14:34:00,
2013-03-31 10:40:00,48.4,48.1,29.84,WSW,252,0.0,4.0,99,0.00,,,0.00,VWS V14.01,2013-03-31 14:40:00,
2013-03-31 10:45:00,48.3,48.0,29.84,WSW,253,0.0,0.0,99,0.00,,,0.00,VWS V14.01,2013-03-31 14:45:00,
2013-03-31 10:50:00,48.4,48.1,29.84,WSW,254,2.0,2.0,99,0.00,,,0.00,VWS V14.01,2013-03-31 14:50:00,
2013-03-31 10:55:00,48.6,48.3,29.84,WSW,254,2.0,4.0,99,0.00,,,0.00,VWS V14.01,2013-03-31 14:55:00,
2013-03-31 11:00:00,48.7,48.4,29.83,WSW,254,3.0,3.0,99,0.00,,,0.00,VWS V14.01,2013-03-31 15:00:00,
2013-03-31 11:05:00,48.6,48.3,29.84,WSW,253,3.0,3.0,99,0.00,,,0.00,VWS V14.01,2013-03-31 15:05:00,
2013-03-31 11:10:00,48.6,48.3,29.84,WSW,249,3.0,5.0,99,0.00,,,0.00,VWS V14.01,2013-03-31 15:10:00,
2013-03-31 11:15:00,48.7,48.4,29.85,WSW,250,1.0,3.0,99,0.00,,,0.00,VWS V14.01,2013-03-31 15:15:00,
2013-03-31 11:20:00,48.8,48.5,29.84,WSW,246,0.0,0.0,99,0.00,,,0.00,VWS V14.01,2013-03-31 15:20:00,
2013-03-31 11:25:00,48.8,48.5,29.85,WSW,241,2.0,3.0,99,0.00,,,0.00,VWS V14.01,2013-03-31 15:25:00,
2013-03-31 11:31:00,49.0,48.7,29.85,WSW,257,6.0,7.0,99,0.00,,,0.00,VWS V14.01,2013-03-31 15:31:00,
2013-03-31 11:37:00,49.0,48.7,29.85,West,261,6.0,7.0,99,0.00,,,0.00,VWS V14.01,2013-03-31 15:37:00,
2013-03-31 11:42:00,49.0,48.7,29.85,WSW,254,5.0,5.0,99,0.00,,,0.00,VWS V14.01,2013-03-31 15:42:00,
2013-03-31 11:47:00,49.1,48.8,29.85,SW,236,2.0,3.0,99,0.00,,,0.00,VWS V14.01,2013-03-31 15:47:00,
2013-03-31 11:52:00,49.1,48.8,29.85,SW,232,3.0,3.0,99,0.00,,,0.00,VWS V14.01,2013-03-31 15:52:00,
2013-03-31 11:57:00,49.1,48.6,29.85,West,267,2.0,2.0,98,0.00,,,0.00,VWS V14.01,2013-03-31 15:57:00,
2013-03-31 12:03:00,49.2,48.7,29.85,West,260,0.0,1.0,98,0.00,,,0.00,VWS V14.01,2013-03-31 16:03:00,
2013-03-31 12:08:00,49.3,48.8,29.85,West,260,0.0,1.0,98,0.00,,,0.00,VWS V14.01,2013-03-31 16:08:00,
2013-03-31 12:13:00,49.4,48.9,29.85,West,262,3.0,3.0,98,0.00,,,0.00,VWS V14.01,2013-03-31 16:13:00,
2013-03-31 12:18:00,49.4,48.9,29.85,West,259,2.0,2.0,98,0.00,,,0.00,VWS V14.01,2013-03-31 16:18:00,
2013-03-31 12:23:00,49.6,49.1,29.85,WSW,254,3.0,3.0,98,0.00,,,0.00,VWS V14.01,2013-03-31 16:23:00,
2013-03-31 12:28:00,49.8,49.3,29.85,WSW,250,4.0,4.0,98,0.00,,,0.00,VWS V14.01,2013-03-31 16:28:00,
2013-03-31 12:33:00,50.0,49.2,29.86,SW,226,4.0,4.0,97,0.00,,,0.00,VWS V14.01,2013-03-31 16:33:00,
2013-03-31 12:38:00,50.2,49.4,29.87,SW,227,2.0,3.0,97,0.00,,,0.00,VWS V14.01,2013-03-31 16:38:00,
2013-03-31 12:44:00,50.2,49.1,29.87,WSW,250,2.0,3.0,96,0.00,,,0.00,VWS V14.01,2013-03-31 16:44:00,
2013-03-31 12:49:00,50.4,49.3,29.86,SW,233,1.0,3.0,96,0.00,,,0.00,VWS V14.01,2013-03-31 16:49:00,
2013-03-31 12:54:00,50.7,49.6,29.86,West,263,7.0,8.0,96,0.00,,,0.00,VWS V14.01,2013-03-31 16:54:00,
2013-03-31 12:59:00,50.9,49.8,29.86,WSW,245,2.0,6.0,96,0.00,,,0.00,VWS V14.01,2013-03-31 16:59:00,
2013-03-31 13:04:00,51.3,49.9,29.86,WSW,246,3.0,3.0,95,0.00,,,0.00,VWS V14.01,2013-03-31 17:04:00,
2013-03-31 13:10:00,51.7,50.0,29.86,WSW,246,2.0,4.0,94,0.00,,,0.00,VWS V14.01,2013-03-31 17:10:00,
2013-03-31 13:15:00,51.9,49.9,29.86,SSW,208,7.0,9.0,93,0.00,,,0.00,VWS V14.01,2013-03-31 17:15:00,
2013-03-31 13:20:00,52.1,50.1,29.86,West,259,0.0,2.0,93,0.00,,,0.00,VWS V14.01,2013-03-31 17:20:00,
2013-03-31 13:25:00,52.2,50.0,29.85,WSW,254,4.0,4.0,92,0.00,,,0.00,VWS V14.01,2013-03-31 17:25:00,
2013-03-31 13:30:00,52.2,50.0,29.85,West,260,1.0,4.0,92,0.00,,,0.00,VWS V14.01,2013-03-31 17:30:00,
2013-03-31 13:35:00,52.3,49.8,29.85,West,269,2.0,8.0,91,0.00,,,0.00,VWS V14.01,2013-03-31 17:35:00,
2013-03-31 13:40:00,52.6,50.0,29.85,SW,221,3.0,4.0,91,0.00,,,0.00,VWS V14.01,2013-03-31 17:40:00,
2013-03-31 13:45:00,52.6,49.8,29.84,SW,219,2.0,4.0,90,0.00,,,0.00,VWS V14.01,2013-03-31 17:45:00,
2013-03-31 13:50:00,52.5,49.4,29.84,SW,227,9.0,10.0,89,0.00,,,0.00,VWS V14.01,2013-03-31 17:50:00,
2013-03-31 13:55:00,52.5,49.7,29.83,SSW,211,3.0,4.0,90,0.00,,,0.00,VWS V14.01,2013-03-31 17:55:00,
2013-03-31 14:01:00,52.8,50.0,29.83,SSW,196,8.0,8.0,90,0.00,,,0.00,VWS V14.01,2013-03-31 18:01:00,
2013-03-31 14:06:00,53.2,50.3,29.82,SSW,205,2.0,5.0,90,0.00,,,0.00,VWS V14.01,2013-03-31 18:06:00,
2013-03-31 14:11:00,53.5,50.0,29.83,WSW,244,2.0,2.0,88,0.00,,,0.00,VWS V14.01,2013-03-31 18:11:00,
2013-03-31 14:16:00,53.8,50.3,29.83,WSW,257,1.0,3.0,88,0.00,,,0.00,VWS V14.01,2013-03-31 18:16:00,
2013-03-31 14:21:00,54.3,50.5,29.83,SW,225,4.0,10.0,87,0.00,,,0.00,VWS V14.01,2013-03-31 18:21:00,
2013-03-31 14:26:00,54.1,50.0,29.83,SSW,209,2.0,4.0,86,0.00,,,0.00,VWS V14.01,2013-03-31 18:26:00,
2013-03-31 14:31:00,54.2,50.4,29.83,SW,231,0.0,1.0,87,0.00,,,0.00,VWS V14.01,2013-03-31 18:31:00,
2013-03-31 14:36:00,54.1,50.0,29.82,WSW,244,0.0,1.0,86,0.00,,,0.00,VWS V14.01,2013-03-31 18:36:00,
2013-03-31 14:41:00,54.4,50.3,29.82,SW,235,2.0,7.0,86,0.00,,,0.00,VWS V14.01,2013-03-31 18:41:00,
2013-03-31 14:48:00,54.7,50.6,29.82,SW,232,5.0,7.0,86,0.00,,,0.00,VWS V14.01,2013-03-31 18:48:00,
2013-03-31 14:53:00,55.2,50.5,29.82,SW,229,3.0,3.0,84,0.00,,,0.00,VWS V14.01,2013-03-31 18:53:00,
2013-03-31 14:58:00,55.7,50.6,29.82,SW,223,7.0,7.0,83,0.00,,,0.00,VWS V14.01,2013-03-31 18:58:00,
2013-03-31 15:03:00,56.1,51.3,29.81,WSW,256,3.0,7.0,84,0.00,,,0.00,VWS V14.01,2013-03-31 19:03:00,
2013-03-31 15:08:00,56.5,50.4,29.81,SW,232,3.0,3.0,80,0.00,,,0.00,VWS V14.01,2013-03-31 19:08:00,
2013-03-31 15:13:00,56.4,50.0,29.81,SW,233,2.0,3.0,79,0.00,,,0.00,VWS V14.01,2013-03-31 19:13:00,
2013-03-31 15:18:00,56.7,49.6,29.81,WSW,252,3.0,3.0,77,0.00,,,0.00,VWS V14.01,2013-03-31 19:18:00,
2013-03-31 15:23:00,56.9,49.8,29.81,SW,234,1.0,3.0,77,0.00,,,0.00,VWS V14.01,2013-03-31 19:23:00,
2013-03-31 15:29:00,57.2,50.4,29.81,SW,236,2.0,2.0,78,0.00,,,0.00,VWS V14.01,2013-03-31 19:29:00,
2013-03-31 15:34:00,57.1,50.0,29.81,SW,236,0.0,1.0,77,0.00,,,0.00,VWS V14.01,2013-03-31 19:34:00,
2013-03-31 15:39:00,56.9,50.1,29.81,WSW,239,5.0,5.0,78,0.00,,,0.00,VWS V14.01,2013-03-31 19:39:00,
2013-03-31 15:45:00,57.3,50.5,29.80,WSW,240,2.0,3.0,78,0.00,,,0.00,VWS V14.01,2013-03-31 19:45:00,
2013-03-31 15:50:00,58.0,49.4,29.79,WSW,257,4.0,7.0,73,0.00,,,0.00,VWS V14.01,2013-03-31 19:50:00,
2013-03-31 15:55:00,58.6,49.6,29.79,SW,227,2.0,6.0,72,0.00,,,0.00,VWS V14.01,2013-03-31 19:55:00,
2013-03-31 16:00:00,58.6,49.2,29.79,SW,215,0.0,2.0,71,0.00,,,0.00,VWS V14.01,2013-03-31 20:00:00,
2013-03-31 16:05:00,58.9,49.5,29.79,West,262,3.0,4.0,71,0.00,,,0.00,VWS V14.01,2013-03-31 20:05:00,
2013-03-31 16:10:00,58.9,50.3,29.79,West,260,2.0,3.0,73,0.00,,,0.00,VWS V14.01,2013-03-31 20:10:00,
2013-03-31 16:15:00,59.0,48.9,29.79,WSW,242,2.0,6.0,69,0.00,,,0.00,VWS V14.01,2013-03-31 20:15:00,
2013-03-31 16:20:00,59.5,49.7,29.79,West,268,0.0,1.0,70,0.00,,,0.00,VWS V14.01,2013-03-31 20:20:00,
2013-03-31 16:25:00,59.8,48.8,29.79,SSW,205,8.0,9.0,67,0.00,,,0.00,VWS V14.01,2013-03-31 20:25:00,
2013-03-31 16:30:00,59.3,48.4,29.79,WSW,245,9.0,10.0,67,0.00,,,0.00,VWS V14.01,2013-03-31 20:30:00,
2013-03-31 16:36:00,59.5,48.5,29.79,WSW,250,3.0,4.0,67,0.00,,,0.00,VWS V14.01,2013-03-31 20:36:00,
2013-03-31 16:41:00,59.9,48.9,29.79,WSW,257,3.0,6.0,67,0.00,,,0.00,VWS V14.01,2013-03-31 20:41:00,
2013-03-31 16:46:00,59.9,48.9,29.79,WSW,242,2.0,8.0,67,0.00,,,0.00,VWS V14.01,2013-03-31 20:46:00,
2013-03-31 16:51:00,59.6,48.6,29.79,WSW,257,1.0,4.0,67,0.00,,,0.00,VWS V14.01,2013-03-31 20:51:00,
2013-03-31 16:56:00,59.3,47.5,29.79,SW,234,4.0,7.0,65,0.00,,,0.00,VWS V14.01,2013-03-31 20:56:00,
2013-03-31 17:02:00,59.5,48.5,29.79,SW,227,7.0,8.0,67,0.01,,,0.01,VWS V14.01,2013-03-31 21:02:00,
2013-03-31 17:07:00,59.9,48.1,29.78,WSW,253,3.0,4.0,65,0.01,,,0.01,VWS V14.01,2013-03-31 21:07:00,
2013-03-31 17:12:00,59.9,47.7,29.78,SSW,205,3.0,9.0,64,0.01,,,0.01,VWS V14.01,2013-03-31 21:12:00,
2013-03-31 17:17:00,60.0,47.4,29.78,SSW,205,1.0,5.0,63,0.01,,,0.01,VWS V14.01,2013-03-31 21:17:00,
2013-03-31 17:22:00,60.1,46.6,29.78,SSW,212,4.0,8.0,61,0.01,,,0.01,VWS V14.01,2013-03-31 21:22:00,
2013-03-31 17:27:00,60.2,47.2,29.79,SW,219,0.0,2.0,62,0.01,,,0.01,VWS V14.01,2013-03-31 21:27:00,
2013-03-31 17:32:00,60.9,47.4,29.79,SW,227,5.0,6.0,61,0.01,,,0.01,VWS V14.01,2013-03-31 21:32:00,
2013-03-31 17:37:00,61.0,46.6,29.79,WSW,251,8.0,11.0,59,0.01,,,0.01,VWS V14.01,2013-03-31 21:37:00,
2013-03-31 17:42:00,60.7,47.2,29.79,SW,222,8.0,13.0,61,0.01,,,0.01,VWS V14.01,2013-03-31 21:42:00,
2013-03-31 17:47:00,60.4,46.9,29.79,SW,221,3.0,6.0,61,0.01,,,0.01,VWS V14.01,2013-03-31 21:47:00,
2013-03-31 17:52:00,60.7,48.0,29.79,SW,223,5.0,6.0,63,0.01,,,0.01,VWS V14.01,2013-03-31 21:52:00,
2013-03-31 17:58:00,60.6,47.1,29.79,West,265,0.0,3.0,61,0.01,,,0.01,VWS V14.01,2013-03-31 21:58:00,
2013-03-31 18:03:00,60.5,47.4,29.80,NW,304,2.0,2.0,62,0.00,,,0.01,VWS V14.01,2013-03-31 22:03:00,
2013-03-31 18:08:00,60.5,47.9,29.80,WNW,301,0.0,1.0,63,0.00,,,0.01,VWS V14.01,2013-03-31 22:08:00,
2013-03-31 18:13:00,61.0,47.5,29.80,SW,225,0.0,4.0,61,0.00,,,0.01,VWS V14.01,2013-03-31 22:13:00,
2013-03-31 18:18:00,61.1,47.1,29.80,WSW,246,5.0,5.0,60,0.00,,,0.01,VWS V14.01,2013-03-31 22:18:00,
2013-03-31 18:23:00,60.9,46.9,29.80,WSW,238,2.0,6.0,60,0.00,,,0.01,VWS V14.01,2013-03-31 22:23:00,
2013-03-31 18:29:00,60.3,46.8,29.81,WSW,248,2.0,8.0,61,0.00,,,0.01,VWS V14.01,2013-03-31 22:29:00,
2013-03-31 18:34:00,60.4,47.3,29.81,WSW,245,0.0,2.0,62,0.00,,,0.01,VWS V14.01,2013-03-31 22:34:00,
2013-03-31 18:39:00,60.8,47.3,29.81,West,260,3.0,3.0,61,0.00,,,0.01,VWS V14.01,2013-03-31 22:39:00,
2013-03-31 18:44:00,61.0,47.5,29.81,NW,317,0.0,2.0,61,0.00,,,0.01,VWS V14.01,2013-03-31 22:44:00,
2013-03-31 18:49:00,61.0,46.6,29.81,WNW,284,4.0,7.0,59,0.00,,,0.01,VWS V14.01,2013-03-31 22:49:00,
2013-03-31 18:55:00,60.8,46.8,29.81,West,273,1.0,3.0,60,0.00,,,0.01,VWS V14.01,2013-03-31 22:55:00,
2013-03-31 19:00:00,60.7,46.8,29.81,WSW,243,5.0,5.0,60,0.00,,,0.01,VWS V14.01,2013-03-31 23:00:00,
2013-03-31 19:05:00,60.4,46.9,29.81,West,268,2.0,2.0,61,0.00,,,0.01,VWS V14.01,2013-03-31 23:05:00,
2013-03-31 19:10:00,60.0,46.1,29.81,WSW,241,7.0,7.0,60,0.00,,,0.01,VWS V14.01,2013-03-31 23:10:00,
2013-03-31 19:15:00,59.6,46.6,29.82,West,271,6.0,6.0,62,0.00,,,0.01,VWS V14.01,2013-03-31 23:15:00,
2013-03-31 19:20:00,59.1,46.1,29.81,West,267,0.0,1.0,62,0.00,,,0.01,VWS V14.01,2013-03-31 23:20:00,
2013-03-31 19:25:00,59.0,46.4,29.81,WSW,246,2.0,4.0,63,0.00,,,0.01,VWS V14.01,2013-03-31 23:25:00,
2013-03-31 19:30:00,59.0,46.4,29.81,WSW,250,2.0,3.0,63,0.00,,,0.01,VWS V14.01,2013-03-31 23:30:00,
2013-03-31 19:35:00,58.6,46.5,29.81,West,265,3.0,5.0,64,0.00,,,0.01,VWS V14.01,2013-03-31 23:35:00,
2013-03-31 19:40:00,58.3,46.6,29.81,West,266,0.0,0.0,65,0.00,,,0.01,VWS V14.01,2013-03-31 23:40:00,
2013-03-31 19:45:00,58.1,46.4,29.81,West,265,0.0,1.0,65,0.00,,,0.01,VWS V14.01,2013-03-31 23:45:00,
2013-03-31 19:50:00,57.8,46.5,29.81,West,265,0.0,0.0,66,0.00,,,0.01,VWS V14.01,2013-03-31 23:50:00,
2013-03-31 19:55:00,57.6,46.7,29.80,West,262,0.0,2.0,67,0.00,,,0.01,VWS V14.01,2013-03-31 23:55:00,
2013-03-31 20:01:00,57.2,46.4,29.80,West,261,0.0,2.0,67,0.00,,,0.01,VWS V14.01,2013-04-01 00:01:00,
2013-03-31 20:06:00,56.8,46.0,29.80,West,262,2.0,2.0,67,0.00,,,0.01,VWS V14.01,2013-04-01 00:06:00,
2013-03-31 20:11:00,56.5,46.1,29.80,West,261,0.0,1.0,68,0.00,,,0.01,VWS V14.01,2013-04-01 00:11:00,
2013-03-31 20:16:00,56.2,45.8,29.80,West,262,0.0,0.0,68,0.00,,,0.01,VWS V14.01,2013-04-01 00:16:00,
2013-03-31 20:21:00,55.9,45.9,29.80,West,262,0.0,0.0,69,0.00,,,0.01,VWS V14.01,2013-04-01 00:21:00,
2013-03-31 20:26:00,55.5,45.5,29.80,West,262,0.0,0.0,69,0.00,,,0.01,VWS V14.01,2013-04-01 00:26:00,
2013-03-31 20:32:00,55.2,45.6,29.80,West,261,0.0,0.0,70,0.00,,,0.01,VWS V14.01,2013-04-01 00:32:00,
2013-03-31 20:38:00,54.9,45.3,29.80,West,262,0.0,0.0,70,0.00,,,0.01,VWS V14.01,2013-04-01 00:38:00,
2013-03-31 20:43:00,54.7,45.5,29.80,West,262,0.0,0.0,71,0.00,,,0.01,VWS V14.01,2013-04-01 00:43:00,
2013-03-31 20:48:00,54.3,45.1,29.80,West,262,0.0,0.0,71,0.00,,,0.01,VWS V14.01,2013-04-01 00:48:00,
2013-03-31 20:53:00,53.9,45.1,29.80,West,262,0.0,0.0,72,0.00,,,0.01,VWS V14.01,2013-04-01 00:53:00,
2013-03-31 20:59:00,53.6,45.2,29.80,West,261,0.0,0.0,73,0.00,,,0.01,VWS V14.01,2013-04-01 00:59:00,
2013-03-31 21:04:00,53.3,44.9,29.80,West,262,0.0,0.0,73,0.00,,,0.01,VWS V14.01,2013-04-01 01:04:00,
2013-03-31 21:09:00,53.0,45.0,29.81,West,262,0.0,0.0,74,0.00,,,0.01,VWS V14.01,2013-04-01 01:09:00,
2013-03-31 21:14:00,52.6,44.6,29.81,West,262,0.0,0.0,74,0.00,,,0.01,VWS V14.01,2013-04-01 01:14:00,
2013-03-31 21:19:00,52.3,44.6,29.81,West,262,0.0,0.0,75,0.00,,,0.01,VWS V14.01,2013-04-01 01:19:00,
2013-03-31 21:24:00,51.9,44.6,29.81,West,262,0.0,0.0,76,0.00,,,0.01,VWS V14.01,2013-04-01 01:24:00,
2013-03-31 21:29:00,51.7,44.7,29.81,West,262,0.0,0.0,77,0.00,,,0.01,VWS V14.01,2013-04-01 01:29:00,
2013-03-31 21:34:00,51.5,44.5,29.81,West,262,0.0,0.0,77,0.00,,,0.01,VWS V14.01,2013-04-01 01:34:00,
2013-03-31 21:39:00,51.4,44.8,29.82,West,262,0.0,0.0,78,0.00,,,0.01,VWS V14.01,2013-04-01 01:39:00,
2013-03-31 21:44:00,51.3,44.7,29.82,West,261,0.0,0.0,78,0.00,,,0.01,VWS V14.01,2013-04-01 01:44:00,
2013-03-31 21:50:00,51.1,44.8,29.81,West,262,0.0,0.0,79,0.00,,,0.01,VWS V14.01,2013-04-01 01:50:00,
2013-03-31 21:55:00,50.8,44.5,29.82,West,261,0.0,0.0,79,0.00,,,0.01,VWS V14.01,2013-04-01 01:55:00,
2013-03-31 22:00:00,50.6,44.3,29.82,West,261,0.0,0.0,79,0.00,,,0.01,VWS V14.01,2013-04-01 02:00:00,
2013-03-31 22:05:00,50.3,44.4,29.82,West,261,0.0,0.0,80,0.00,,,0.01,VWS V14.01,2013-04-01 02:05:00,
2013-03-31 22:10:00,50.3,44.7,29.81,West,262,0.0,0.0,81,0.00,,,0.01,VWS V14.01,2013-04-01 02:10:00,
2013-03-31 22:15:00,50.2,44.6,29.81,West,262,0.0,3.0,81,0.00,,,0.01,VWS V14.01,2013-04-01 02:15:00,
2013-03-31 22:20:00,50.2,44.6,29.81,West,262,0.0,0.0,81,0.00,,,0.01,VWS V14.01,2013-04-01 02:20:00,
2013-03-31 22:25:00,50.3,44.7,29.81,West,261,0.0,1.0,81,0.00,,,0.01,VWS V14.01,2013-04-01 02:25:00,
2013-03-31 22:31:00,50.4,44.8,29.81,West,262,0.0,1.0,81,0.00,,,0.01,VWS V14.01,2013-04-01 02:31:00,
2013-03-31 22:36:00,50.3,44.7,29.82,West,262,0.0,0.0,81,0.00,,,0.01,VWS V14.01,2013-04-01 02:36:00,
2013-03-31 22:41:00,50.1,44.5,29.82,West,261,0.0,0.0,81,0.00,,,0.01,VWS V14.01,2013-04-01 02:41:00,
2013-03-31 22:46:00,50.0,44.4,29.81,West,262,1.0,1.0,81,0.00,,,0.01,VWS V14.01,2013-04-01 02:46:00,
2013-03-31 22:51:00,49.9,44.3,29.81,West,262,1.0,1.0,81,0.00,,,0.01,VWS V14.01,2013-04-01 02:51:00,
2013-03-31 22:56:00,49.9,44.6,29.82,West,262,1.0,3.0,82,0.00,,,0.01,VWS V14.01,2013-04-01 02:56:00,
2013-03-31 23:01:00,49.9,44.6,29.82,West,262,0.0,0.0,82,0.00,,,0.01,VWS V14.01,2013-04-01 03:01:00,
2013-03-31 23:06:00,49.9,44.6,29.81,West,261,0.0,0.0,82,0.00,,,0.01,VWS V14.01,2013-04-01 03:06:00,
2013-03-31 23:12:00,50.0,44.7,29.81,West,261,1.0,1.0,82,0.00,,,0.01,VWS V14.01,2013-04-01 03:12:00,
2013-03-31 23:17:00,50.1,44.8,29.81,West,260,0.0,1.0,82,0.00,,,0.01,VWS V14.01,2013-04-01 03:17:00,
2013-03-31 23:22:00,50.0,44.7,29.81,West,261,0.0,3.0,82,0.00,,,0.01,VWS V14.01,2013-04-01 03:22:00,
2013-03-31 23:27:00,49.9,44.3,29.81,West,260,0.0,0.0,81,0.00,,,0.01,VWS V14.01,2013-04-01 03:27:00,
2013-03-31 23:32:00,49.7,44.4,29.81,West,260,0.0,1.0,82,0.00,,,0.01,VWS V14.01,2013-04-01 03:32:00,
2013-03-31 23:38:00,49.5,44.2,29.81,West,260,0.0,0.0,82,0.00,,,0.01,VWS V14.01,2013-04-01 03:38:00,
2013-03-31 23:43:00,49.4,44.1,29.81,West,260,3.0,3.0,82,0.00,,,0.01,VWS V14.01,2013-04-01 03:43:00,
2013-03-31 23:48:00,49.3,44.4,29.81,West,260,0.0,0.0,83,0.00,,,0.01,VWS V14.01,2013-04-01 03:48:00,
2013-03-31 23:53:00,49.2,44.3,29.81,West,260,2.0,3.0,83,0.00,,,0.01,VWS V14.01,2013-04-01 03:53:00,
2013-03-31 23:59:00,49.4,44.5,29.81,WSW,258,1.0,3.0,83,0.00,,,0.00,VWS V14.01,2013-04-01 03:59:00,